Regional Weather Roundup
Issued by NWS

Home | Current Version | Previous Version | Text Only | Print | Product List | Glossary Off
Versions: 1 2 3 4 5 6 7 8 9 10 11 12 13 14 15 16 17 18 19 20 21 22 23 24 25 26 27 28 29 30 31 32 33 34 35 36 37 38 39 40 41 42 43 44 45 46 47 48 49 50

000
ASUS43 KDMX 052301
RWRIA

WEATHER ROUNDUP FOR IOWA
NATIONAL WEATHER SERVICE DES MOINES IA
500 PM CST MON DEC 05 2016

NOTE: "FAIR" INDICATES FEW OR NO CLOUDS BELOW 12,000 FEET WITH NO
SIGNIFICANT WEATHER AND/OR OBSTRUCTIONS TO VISIBILITY.

* - THESE STATIONS ARE NOT NWS STATIONS...THUS NOT UNDER NWS
QUALITY CONTROL.  THEY ALSO DO NOT REPORT WEATHER SUCH
AS PRECIPITATION OR FOG.

IAZ001>003-012>014-020>022-031>034-043>046-060000-
   NORTHWEST IOWA

CITY           SKY/WX    TMP DP  RH WIND       PRES   REMARKS
CARROLL *      CLOUDY    45  37  76 S16       29.65S
CHEROKEE *     CLOUDY    44  37  78 SW10      29.64R
DENISON *      CLOUDY    45  37  76 S17       29.63R
LE MARS *      CLOUDY    45  36  70 S12G18    29.63S
ORANGE CITY *  PTCLDY    43  37  81 S16       29.60S
SHELDON *      PTCLDY    43  37  81 S16G23    29.59R
SIOUX CITY     CLOUDY    45  37  73 SW6       29.64R
SPENCER        CLOUDY    43  36  76 S21       29.63R
STORM LAKE *   CLOUDY    43  37  81 S17G26    29.63R
$$

IAZ055>058-069>071-079>083-090>094-060000-
   SOUTHWEST IOWA

CITY           SKY/WX    TMP DP  RH WIND       PRES   REMARKS
ATLANTIC *     CLEAR     45  36  70 S9        29.67R
AUDUBON *      CLOUDY    46  36  66 S10G20    29.67R
CLARINDA *       N/A     46  36  66 S9G17     29.71
COUNCIL BLFS * CLEAR     45  37  76 S8        29.66R
CRESTON *      CLEAR     43  36  75 SE13      29.72F
HARLAN  *      PTCLDY    45  37  76 S10G16    29.70R
LAMONI         CLEAR     44  36  73 SE6       29.75S
RED OAK *      CLEAR     46  36  66 S10G18    29.67F
SHENANDOAH *   CLEAR     46  36  66 S16       29.69S
$$

IAZ047>049-059>061-072>074-084-060000-
   CENTRAL IOWA

CITY           SKY/WX    TMP DP  RH WIND       PRES   REMARKS
AMES           CLOUDY    44  37  76 S12       29.72F
ANKENY *       CLEAR     45 N/A N/A S12       29.74S
BOONE *        CLOUDY    41  36  81 S15       29.70R
CHARITON *       N/A     41  36  81 SE12      29.75F
DES MOINES     PTCLDY    44  35  70 S10       29.74F
GRINNELL*      CLEAR     37  35  92 SE15      29.77F WCI  28
KNOXVILLE *    CLEAR     43  32  65 SE12      29.75F
MARSHALLTOWN   MOCLDY    37  35  92 SE18      29.75F WCI  27
NEWTON *       CLEAR     39  36  87 SE14      29.76S WCI  31
PELLA *        CLEAR     42  35  76 SE12      29.79F
PERRY *          N/A     45  39  81 S18       29.69F
$$

IAZ004>006-015-016-023>025-035-036-060000-
   NORTH CENTRAL IOWA

CITY           SKY/WX    TMP DP  RH WIND       PRES   REMARKS
ALGONA *       CLOUDY    43  37  81 S20G28    29.63S
CLARION *      CLOUDY    37  37 100 SE18      29.68F WCI  27
ESTHERVILLE    CLOUDY    42  37  82 S22G33    29.60R
FORT DODGE *   CLOUDY    45  34  65 S15G24    29.67F
MASON CITY     CLOUDY    35  33  92 SE17G24   29.71S WCI  25
WEBSTER CITY * CLOUDY    41  39  93 SE17      29.66F
IOWA FALLS *     N/A     36  34  94 SE18G24   29.72F FOG     WCI  25
$$

IAZ007>011-017>019-026>030-037>042-050>054-066-060000-
   NORTHEAST IOWA

CITY           SKY/WX    TMP DP  RH WIND       PRES   REMARKS
CEDAR RAPIDS   CLOUDY    33  33 100 SE10      29.85F FOG     WCI  25
CHARLES CITY * CLOUDY    34  34 100 SE22G28   29.73F FOG     WCI  22
CLINTON *      CLOUDY    33  32  96 SE10      29.92F FOG     WCI  25
DECORAH *      PTCLDY    32  30  93 SE13G20   29.79F WCI  22
DUBUQUE        LGT SNOW  32  31  96 S9        29.89F FOG     WCI  24
MONTICELLO *   CLOUDY    34  32  93 SE12      29.88F FOG     WCI  25
OELWEIN *      CLOUDY    32  32 100 SE22G28   29.80F FOG     WCI  19
WATERLOO       CLOUDY    33  31  92 SE18      29.77F WCI  22
$$

IAZ064-065-067-068-078-060000-
   EAST CENTRAL IOWA

CITY           SKY/WX    TMP DP  RH WIND       PRES   REMARKS
DAVENPORT      CLOUDY    33  31  92 SE9       29.90F WCI  25
IOWA CITY      CLOUDY    34  32  92 SE10      29.89F WCI  26
MUSCATINE *    CLOUDY    36  34  93 SE8       29.90F FOG     WCI  29
QUAD CITIES    CLOUDY    35  31  85 SE9       29.91F FOG     WCI  28
$$

IAZ062-063-075>077-085>089-095>099-060000-
   SOUTHEAST IOWA

CITY           SKY/WX    TMP DP  RH WIND       PRES   REMARKS
BURLINGTON     CLOUDY    36  35  96 SE10      29.89S WCI  28
FAIRFIELD *    CLOUDY    36  34  93 SE10G18   29.86R WCI  28
FORT MADISON * CLOUDY    37  36  93 SE8       29.89R WCI  31
KEOKUK *       CLOUDY    39  36  87 SE9G16    29.87S WCI  33
OSKALOOSA *      N/A     37  34  91 SE13      29.82F WCI  28
CENTERVILLE *    N/A     37  36  93 SE14      29.81S WCI  29
OTTUMWA        CLEAR     38  33  82 SE12      29.82F WCI  30
WASHINGTON *   CLOUDY    34  34 100 SE13G20   29.87F FOG     WCI  25
$$

ABBREVIATIONS USED IN REMARKS
   TC - TEMPERATURES IN CELSIUS
  WCI - WIND CHILL INDEX
   HX - HEAT INDEX
  VSB - VISIBILITY
$$





USA.gov is the U.S. government's official web portal to all federal, state and local government web resources and services.